Fort Leonard Wood, MO

6:28 AM CDT on September 20, 2017 (GMT -0500)
Waynesville Regional At Forney Field

Weather History for KTBN - November, 2012

Change the Weather History Date:

Wednesday, November 21, 2012

  Actual Average Record
Temperature  
Mean Temperature 52 °F -  
Max Temperature 67 °F 52 °F 70 °F (2010)
Min Temperature 37 °F 37 °F 14 °F (2000)
Degree Days  
Heating Degree Days 13    
Growing Degree Days 2 (Base 50)    
Moisture  
Dew Point 40 °F    
Average Humidity 94    
Maximum Humidity 100    
Minimum Humidity 25    
Precipitation  
Precipitation 0.00 in - - ()
Sea Level Pressure  
Sea Level Pressure 30.23 in    
Wind  
Wind Speed 1 mph (SSW)    
Max Wind Speed 8 mph    
Max Gust Speed -    
Visibility 2 miles    
Events Fog    
Averages and records for this station are not official NWS values.
T = Trace of Precipitation, MM = Missing Value Source: NWS Daily Summary

Daily Weather History Graph

Daily Weather History Graph

Search for Another Location

Airport or City:

Trip Planner

Search our weather history database for the weather conditions in past years. The results will help you decide how hot, cold, wet, or windy it might be!

Date:

Astronomy

Nov. 21, 2012 Rise Set
Actual Time 6:55 AM CST 4:53 PM CST
Civil Twilight 6:27 AM CST 5:21 PM CST
Nautical Twilight 5:55 AM CST 5:53 PM CST
Astronomical Twilight 5:23 AM CST 6:24 PM CST
Moon 1:03 PM CST (11/21) 12:21 AM CST (11/21)
Length of Visible Light 10h 54m
Length of Day
9h 57m
First Quarter, 62% of the Moon is Illuminated
Nov 21
First Quarter
Nov 28
Full
Dec 6
Last Quarter
Dec 13
New
Dec 19
First Quarter

Hourly Weather History & Observations

Time (CST) Temp. Windchill Dew Point Humidity Pressure Visibility Wind Dir Wind Speed Gust Speed Precip Events Conditions
12:03 AM 42.8 °F - 42.8 °F 100% 30.22 in 2.0 mi Calm Calm - N/A   Clear
12:09 AM 42.8 °F - 41.0 °F 93% 30.22 in 4.0 mi Calm Calm - N/A   Clear
12:38 AM 41.0 °F - 41.0 °F 100% 30.22 in 2.5 mi Calm Calm - N/A   Clear
12:40 AM 41.0 °F - 41.0 °F 100% 30.22 in 1.8 mi Calm Calm - N/A   Clear
12:41 AM 41.0 °F - 41.0 °F 100% 30.22 in 1.5 mi Calm Calm - N/A   Clear
12:42 AM 41.0 °F - 41.0 °F 100% 30.22 in 1.2 mi Calm Calm - N/A   Clear
12:44 AM 41.0 °F - 41.0 °F 100% 30.22 in 1.0 mi Calm Calm - N/A   Clear
12:47 AM 41.0 °F - 41.0 °F 100% 30.22 in 0.8 mi Calm Calm - N/A   Clear
12:48 AM 41.0 °F - 41.0 °F 100% 30.22 in 0.8 mi Calm Calm - N/A   Clear
12:49 AM 41.0 °F - 41.0 °F 100% 30.22 in 0.5 mi Calm Calm - N/A Fog Fog
12:53 AM 41.0 °F - 41.0 °F 100% 30.22 in 0.5 mi Calm Calm - N/A Fog Fog
12:55 AM 41.7 °F - 41.5 °F 99% 30.22 in 0.2 mi Calm Calm - N/A Fog Fog
1:04 AM 41.0 °F - 41.0 °F 100% 30.22 in 0.5 mi Calm Calm - N/A Fog Fog
1:06 AM 41.0 °F - 41.0 °F 100% 30.22 in 0.5 mi Calm Calm - N/A Fog Fog
1:10 AM 41.0 °F - 41.0 °F 100% 30.22 in 0.8 mi Calm Calm - N/A   Clear
1:11 AM 41.0 °F - 41.0 °F 100% 30.22 in 1.0 mi Calm Calm - N/A   Clear
1:12 AM 41.0 °F - 41.0 °F 100% 30.22 in 1.2 mi Calm Calm - N/A   Clear
1:13 AM 41.0 °F - 41.0 °F 100% 30.22 in 1.5 mi Calm Calm - N/A   Clear
1:14 AM 41.0 °F - 41.0 °F 100% 30.22 in 2.0 mi Calm Calm - N/A   Clear
1:17 AM 41.0 °F - 41.0 °F 100% 30.22 in 1.8 mi Calm Calm - N/A   Clear
1:18 AM 41.0 °F - 41.0 °F 100% 30.22 in 1.5 mi Calm Calm - N/A   Clear
1:20 AM 41.0 °F - 41.0 °F 100% 30.22 in 1.2 mi Calm Calm - N/A   Clear
1:23 AM 41.0 °F - 41.0 °F 100% 30.22 in 1.0 mi Calm Calm - N/A   Clear
1:24 AM 41.0 °F - 41.0 °F 100% 30.22 in 0.8 mi Calm Calm - N/A   Clear
1:32 AM 41.0 °F - 39.2 °F 93% 30.21 in 0.5 mi Calm Calm - N/A Fog Fog
1:33 AM 41.0 °F - 39.2 °F 93% 30.21 in 0.8 mi Calm Calm - N/A   Clear
1:40 AM 39.2 °F - 39.2 °F 100% 30.22 in 0.5 mi Calm Calm - N/A Fog Fog
1:43 AM 39.2 °F - 39.2 °F 100% 30.22 in 0.8 mi Calm Calm - N/A   Clear
1:47 AM 41.0 °F - 41.0 °F 100% 30.22 in 1.0 mi Calm Calm - N/A   Clear
1:49 AM 41.0 °F - 41.0 °F 100% 30.22 in 1.2 mi Calm Calm - N/A   Clear
1:50 AM 41.0 °F - 41.0 °F 100% 30.22 in 1.5 mi Calm Calm - N/A   Clear
1:51 AM 41.0 °F - 41.0 °F 100% 30.22 in 1.8 mi Calm Calm - N/A   Clear
1:52 AM 41.0 °F - 41.0 °F 100% 30.22 in 2.0 mi Calm Calm - N/A   Clear
1:55 AM 41.5 °F - 41.5 °F 100% 30.22 in 2.0 mi Calm Calm - N/A   Clear
1:56 AM 41.0 °F - 41.0 °F 100% 30.22 in 1.8 mi Calm Calm - N/A   Clear
1:59 AM 41.0 °F - 41.0 °F 100% 30.22 in 2.0 mi Calm Calm - N/A   Clear
2:05 AM 41.0 °F - 41.0 °F 100% 30.22 in 1.8 mi Calm Calm - N/A   Clear
2:07 AM 41.0 °F - 41.0 °F 100% 30.22 in 1.5 mi Calm Calm - N/A   Clear
2:09 AM 41.0 °F - 41.0 °F 100% 30.22 in 1.2 mi Calm Calm - N/A   Clear
2:12 AM 41.0 °F - 41.0 °F 100% 30.22 in 1.0 mi Calm Calm - N/A   Clear
2:14 AM 41.0 °F - 41.0 °F 100% 30.22 in 0.8 mi Calm Calm - N/A   Clear
2:17 AM 41.0 °F - 41.0 °F 100% 30.22 in 0.5 mi Calm Calm - N/A Fog Fog
2:21 AM 41.0 °F - 41.0 °F 100% 30.22 in 0.5 mi Calm Calm - N/A Fog Fog
2:35 AM 41.0 °F - 39.2 °F 93% 30.22 in 0.2 mi Calm Calm - N/A Fog Fog
2:39 AM 39.2 °F 37.0 °F 39.2 °F 100% 30.22 in 0.5 mi WSW 3.5 mph - N/A Fog Fog
2:42 AM 39.2 °F 37.0 °F 39.2 °F 100% 30.23 in 0.5 mi WSW 3.5 mph - N/A Fog Fog
2:45 AM 39.2 °F 37.0 °F 39.2 °F 100% 30.23 in 0.8 mi WSW 3.5 mph - N/A   Clear
2:47 AM 39.2 °F 35.9 °F 39.2 °F 100% 30.23 in 1.0 mi WSW 4.6 mph - N/A   Clear
2:49 AM 39.2 °F 37.0 °F 39.2 °F 100% 30.23 in 1.2 mi WSW 3.5 mph - N/A   Clear
2:50 AM 39.2 °F 37.0 °F 39.2 °F 100% 30.23 in 1.5 mi WSW 3.5 mph - N/A   Clear
2:51 AM 39.2 °F 37.0 °F 39.2 °F 100% 30.23 in 1.8 mi WSW 3.5 mph - N/A   Clear
2:52 AM 39.2 °F 37.0 °F 39.2 °F 100% 30.23 in 2.0 mi WSW 3.5 mph - N/A   Clear
2:54 AM 39.2 °F 37.0 °F 39.2 °F 100% 30.23 in 3.0 mi WSW 3.5 mph - N/A   Clear
2:55 AM 39.9 °F 37.8 °F 39.9 °F 100% 30.23 in 3.0 mi WSW 3.5 mph - N/A   Clear
3:23 AM 41.0 °F - 41.0 °F 100% 30.23 in 2.5 mi Calm Calm - N/A   Clear
3:26 AM 39.2 °F - 39.2 °F 100% 30.23 in 1.8 mi Calm Calm - N/A   Clear
3:28 AM 39.2 °F - 39.2 °F 100% 30.23 in 1.5 mi Calm Calm - N/A   Clear
3:35 AM 39.2 °F - 39.2 °F 100% 30.23 in 1.8 mi Calm Calm - N/A   Clear
3:36 AM 39.2 °F - 39.2 °F 100% 30.23 in 2.0 mi Calm Calm - N/A   Clear
3:43 AM 39.2 °F - 39.2 °F 100% 30.23 in 3.0 mi Calm Calm - N/A   Clear
3:55 AM 39.7 °F 37.6 °F 39.7 °F 100% 30.23 in 5.0 mi SW 3.5 mph - N/A   Clear
4:47 AM 39.2 °F - 39.2 °F 100% 30.23 in 2.5 mi Calm Calm - N/A   Clear
4:51 AM 39.2 °F - 39.2 °F 100% 30.24 in 1.8 mi Calm Calm - N/A   Clear
4:52 AM 39.2 °F - 39.2 °F 100% 30.24 in 1.5 mi Calm Calm - N/A   Clear
4:53 AM 39.2 °F - 39.2 °F 100% 30.24 in 1.2 mi Calm Calm - N/A   Clear
4:54 AM 39.2 °F - 39.2 °F 100% 30.24 in 1.0 mi Calm Calm - N/A   Clear
4:55 AM 39.9 °F - 39.9 °F 100% 30.24 in 0.8 mi Calm Calm - N/A   Clear
4:57 AM 39.2 °F - 39.2 °F 100% 30.24 in 0.5 mi Calm Calm - N/A Fog Fog
4:59 AM 39.2 °F - 39.2 °F 100% 30.24 in 0.5 mi Calm Calm - N/A Fog Fog
5:01 AM 39.2 °F - 39.2 °F 100% 30.24 in 0.5 mi Calm Calm - N/A Fog Fog
5:14 AM 39.2 °F - 39.2 °F 100% 30.24 in 0.5 mi Calm Calm - N/A Fog Fog
5:15 AM 39.2 °F - 39.2 °F 100% 30.24 in 0.8 mi Calm Calm - N/A   Clear
5:18 AM 39.2 °F - 39.2 °F 100% 30.25 in 1.0 mi Calm Calm - N/A   Clear
5:19 AM 39.2 °F - 39.2 °F 100% 30.25 in 1.2 mi Calm Calm - N/A   Clear
5:20 AM 39.2 °F - 39.2 °F 100% 30.25 in 1.5 mi Calm Calm - N/A   Clear
5:21 AM 39.2 °F - 39.2 °F 100% 30.25 in 1.8 mi Calm Calm - N/A   Clear
5:22 AM 39.2 °F - 39.2 °F 100% 30.25 in 2.0 mi Calm Calm - N/A   Clear
5:24 AM 39.2 °F - 39.2 °F 100% 30.25 in 3.0 mi Calm Calm - N/A   Clear
5:36 AM 39.2 °F - 39.2 °F 100% 30.25 in 2.5 mi Calm Calm - N/A   Clear
5:41 AM 39.2 °F - 39.2 °F 100% 30.25 in 1.8 mi Calm Calm - N/A   Clear
5:44 AM 39.2 °F - 39.2 °F 100% 30.25 in 1.5 mi Calm Calm - N/A   Clear
5:47 AM 39.2 °F - 39.2 °F 100% 30.25 in 1.8 mi Calm Calm - N/A   Clear
5:49 AM 39.2 °F - 39.2 °F 100% 30.25 in 2.0 mi Calm Calm - N/A   Clear
5:55 AM 38.7 °F 36.3 °F 38.7 °F 100% 30.24 in 2.5 mi South 3.5 mph - N/A   Clear
6:21 AM 37.4 °F - 37.4 °F 100% 30.25 in 1.8 mi Calm Calm - N/A   Clear
6:24 AM 37.4 °F - 37.4 °F 100% 30.25 in 1.5 mi Calm Calm - N/A   Clear
6:26 AM 39.2 °F - 39.2 °F 100% 30.25 in 1.2 mi Calm Calm - N/A   Clear
6:27 AM 39.2 °F - 39.2 °F 100% 30.25 in 1.0 mi Calm Calm - N/A   Clear
6:36 AM 39.2 °F - 39.2 °F 100% 30.26 in 1.2 mi Calm Calm - N/A   Clear
6:37 AM 39.2 °F - 39.2 °F 100% 30.26 in 1.5 mi Calm Calm - N/A   Clear
6:38 AM 39.2 °F - 39.2 °F 100% 30.26 in 1.8 mi Calm Calm - N/A   Clear
6:41 AM 39.2 °F - 39.2 °F 100% 30.26 in 2.0 mi Calm Calm - N/A   Clear
6:44 AM 37.4 °F - 37.4 °F 100% 30.26 in 1.8 mi Calm Calm - N/A   Clear
6:46 AM 37.4 °F - 37.4 °F 100% 30.26 in 1.2 mi Calm Calm - N/A   Clear
6:47 AM 37.4 °F - 37.4 °F 100% 30.26 in 1.0 mi Calm Calm - N/A   Clear
6:48 AM 37.4 °F - 37.4 °F 100% 30.26 in 0.8 mi Calm Calm - N/A   Clear
6:49 AM 37.4 °F - 37.4 °F 100% 30.26 in 0.5 mi Calm Calm - N/A Fog Fog
6:50 AM 37.4 °F - 37.4 °F 100% 30.26 in 0.2 mi Calm Calm - N/A Fog Fog
6:52 AM 37.4 °F - 37.4 °F 100% 30.27 in 0.2 mi Calm Calm - N/A Fog Fog
6:54 AM 37.4 °F - 37.4 °F 100% 30.27 in 0.2 mi Calm Calm - N/A Fog Fog
6:55 AM 38.3 °F - 38.3 °F 100% 30.27 in 0.2 mi Calm Calm - N/A Fog Fog
6:56 AM 39.2 °F - 39.2 °F 100% 30.27 in 0.2 mi Calm Calm - N/A Fog Fog
6:57 AM 39.2 °F - 39.2 °F 100% 30.27 in 0.2 mi Calm Calm - N/A Fog Fog
7:09 AM 39.2 °F - 39.2 °F 100% 30.27 in 0.2 mi Calm Calm - N/A Fog Fog
7:16 AM 39.2 °F - 39.2 °F 100% 30.27 in 0.2 mi Calm Calm - N/A Fog Fog
7:24 AM 39.2 °F - 39.2 °F 100% 30.27 in 0.2 mi Calm Calm - N/A Fog Fog
7:30 AM 39.2 °F - 39.2 °F 100% 30.27 in 0.2 mi Calm Calm - N/A Fog Fog
7:46 AM 41.0 °F - 41.0 °F 100% 30.27 in 0.2 mi Calm Calm - N/A Fog Fog
7:55 AM 40.3 °F - 40.3 °F 100% 30.27 in 0.8 mi Calm Calm - N/A   Clear
7:58 AM 41.0 °F - 41.0 °F 100% 30.27 in 1.5 mi Calm Calm - N/A   Clear
7:59 AM 41.0 °F - 41.0 °F 100% 30.27 in 1.8 mi Calm Calm - N/A   Clear
8:01 AM 41.0 °F - 41.0 °F 100% 30.27 in 2.0 mi Calm Calm - N/A   Clear
8:26 AM 44.6 °F - 44.6 °F 100% 30.27 in 3.0 mi Calm Calm - N/A   Clear
8:55 AM 48.0 °F - 46.8 °F 95% 30.28 in 7.0 mi Calm Calm - N/A   Clear
9:55 AM 54.1 °F - 49.5 °F 84% 30.27 in 10.0 mi Calm Calm - N/A   Clear
10:55 AM 59.4 °F - 47.5 °F 65% 30.27 in 10.0 mi Calm Calm - N/A   Clear
11:55 AM 63.1 °F - 43.0 °F 48% 30.24 in 10.0 mi SSE 5.8 mph - N/A   Clear
12:55 PM 66.6 °F - 35.1 °F 31% 30.21 in 10.0 mi Variable 5.8 mph - N/A   Clear
1:55 PM 67.6 °F - 30.0 °F 25% 30.19 in 10.0 mi SSE 5.8 mph - N/A   Clear
2:55 PM 67.6 °F - 31.8 °F 26% 30.17 in 10.0 mi South 4.6 mph - N/A   Clear
3:55 PM 66.9 °F - 30.2 °F 25% 30.17 in 10.0 mi South 5.8 mph - N/A   Clear
4:55 PM 61.3 °F - 34.9 °F 37% 30.17 in 10.0 mi South 6.9 mph - N/A   Clear
5:55 PM 56.7 °F - 36.1 °F 46% 30.17 in 10.0 mi South 6.9 mph - N/A   Clear
6:55 PM 55.8 °F - 38.3 °F 52% 30.16 in 10.0 mi South 6.9 mph - N/A   Clear
7:55 PM 54.7 °F - 39.4 °F 56% 30.15 in 10.0 mi South 8.1 mph - N/A   Clear
8:55 PM 50.9 °F - 39.4 °F 65% 30.15 in 10.0 mi South 6.9 mph - N/A   Clear
9:55 PM 46.6 °F - 38.8 °F 74% 30.14 in 10.0 mi SSE 5.8 mph - N/A   Clear
10:55 PM 51.6 °F - 44.2 °F 76% 30.11 in 10.0 mi South 8.1 mph - N/A   Clear
11:55 PM 52.3 °F - 43.3 °F 71% 30.10 in 10.0 mi South 6.9 mph - N/A   Clear